Погода в Олонце

Россия / Республика Карелия     60°58′46″N   32°58′19″E
темп.,
°C
ветер,
м/с
пор.,
м/с
влажн.,
%
обл.,
%
осадки,
мм/ч
давл.,
гПа
погр.,
м
8 мая, сб
сб800:00+4ююв259682 0.0 1006138
03:00+4юв2696100 0.0 1006171
06:00+4в2694100 0.1 1005176
09:00+5в4894100 3.9 1002620
12:00+7юв61393100 5.4 10011197
15:00+4ююз61194100 5.6 1003878
18:00+3юз4897100 0.1 1004528
21:00+2з51097100 0.2 1006582
9 мая, вс
вс900:00+3зсз5987100 0.0 1007693
03:00+1з25979 0.0 1008105
06:00+1сз28890 0.0 1010233
09:00+6зсз37645 0.0 1011730
12:00+9з574816 0.0 10131788
15:00+9з68452 0.0 10151461
18:00+8зюз35482 0.0 1017522
21:00+4ююз24725 0.0 101872
10 мая, пн
пн1000:00+3ююз39765 0.0 1019171
03:00+3ю3885100 0.0 1020154
06:00+4ю3981100 0.0 1020302
09:00+8ююз5969100 0.0 1020962
12:00+7ю51089100 0.1 1021706
15:00+7ю31092100 0.5 1021432
18:00+11ю31286100 0.1 1021389
21:00+13ю51481100 0.2 1021418
11 мая, вт
вт1100:00+12ююз51584100 0.0 1022394
03:00+11ююз51589100 0.0 1023371
06:00+10ююз41390100 0.0 1024370
09:00+13ююз51176100 0.0 1024449
12:00+17ююз6115832 0.0 1025881
15:00+19ююз6105099 0.0 10251167
18:00+18ююз510555 0.0 1024850
21:00+14ююз31169100 0.0 1024212
12 мая, ср
ср1200:00+11ю3107998 0.0 1025181
03:00+10ю3987100 0.0 1026163
06:00+11ю27873 0.0 1026172
09:00+16ю35650 0.0 1026466
12:00+20ююз35510 0.0 10261136
15:00+22юз34440 0.0 10251195
18:00+21з225048 0.0 1024413
21:00+15ссв116987 0.0 102411